Terminal Aerodrome Forecast
Issued by NWS Dodge City, KS

Home | Current Version | Previous Version | Graphics & Text | Print | Product List | Glossary Off
Versions: 1 2 3 4 5 6 7 8 9 10 11 12 13 14 15 16 17 18 19 20 21 22 23 24

000
FTUS43 KDDC 041120
TAFDDC
TAF
KDDC 041120Z 0412/0512 16012KT P6SM SCT120
     FM041400 18020G30KT P6SM SCT250
     FM050100 17013KT P6SM SCT250=

USA.gov is the U.S. government's official web portal to all federal, state and local government web resources and services.